Weather History for Goldsboro, NC

Change the Weather History Date:

Wednesday, December 5, 2012

  Actual Average (KGSB) Record (KGSB)
Temperature  
Mean Temperature 58 °F -  
Max Temperature 70 °F 58 °F 80 °F (1998)
Min Temperature 47 °F 38 °F 21 °F (2000)
Degree Days  
Heating Degree Days 7    
Growing Degree Days 8 (Base 50)    
Moisture  
Dew Point 54 °F    
Average Humidity 86    
Maximum Humidity 100    
Minimum Humidity 63    
Precipitation  
Precipitation 0.00 in - - ()
Sea Level Pressure  
Sea Level Pressure 30.16 in    
Wind  
Wind Speed 7 mph (West)    
Max Wind Speed 14 mph    
Max Gust Speed 26 mph    
Visibility 9 miles    
Events      
Averages and records for this station are not official NWS values.
T = Trace of Precipitation, MM = Missing Value Source: NWS Daily Summary

Daily Weather History Graph

Daily Weather History Graph

Search for Another Location

Airport:

Trip Planner

Search our weather history database for the weather conditions in past years. The results will help you decide how hot, cold, wet, or windy it might be!

Date:

Astronomy

Dec. 05, 2012 Rise Set
Actual Time 7:06 AM EST 4:58 PM EST
Civil Twilight 6:38 AM EST 5:26 PM EST
Nautical Twilight 6:06 AM EST 5:58 PM EST
Astronomical Twilight 5:35 AM EST 6:29 PM EST
Moon 11:35 PM EST (12/5) 11:38 AM EST (12/5)
Length of Visible Light 10h 48m
Length of Day
9h 52m
Waning Gibbous, 60% of the Moon is Illuminated
Dec 5
Waning Gibbous
Dec 6
Last Quarter
Dec 13
New
Dec 20
First Quarter
Dec 28
Full

Hourly Weather History & Observations

Time (EST) Temp. Dew Point Humidity Pressure Visibility Wind Dir Wind Speed Gust Speed Precip Events Conditions
12:15 AM 58.3 °F 58.1 °F 99% 30.20 in 10.0 mi SSW 8.1 mph - N/A   Clear
12:35 AM 57.7 °F 57.6 °F 99% 30.19 in 10.0 mi SSW 8.1 mph - N/A   Clear
12:55 AM 57.6 °F 57.6 °F 100% 30.19 in 10.0 mi SSW 6.9 mph - N/A   Clear
1:15 AM 57.4 °F 57.4 °F 100% 30.18 in 10.0 mi SSW 6.9 mph - N/A   Clear
1:35 AM 57.2 °F 57.2 °F 100% 30.18 in 7.0 mi SSW 6.9 mph - N/A   Clear
1:55 AM 57.2 °F 57.2 °F 100% 30.18 in 10.0 mi SSW 6.9 mph - N/A   Clear
2:15 AM 57.4 °F 57.4 °F 100% 30.18 in 10.0 mi SSW 6.9 mph - N/A   Clear
2:35 AM 56.8 °F 56.7 °F 99% 30.18 in 10.0 mi SSW 8.1 mph - N/A   Clear
2:55 AM 57.0 °F 57.0 °F 100% 30.17 in 10.0 mi SSW 8.1 mph - N/A   Clear
3:15 AM 57.2 °F 57.2 °F 100% 30.17 in 7.0 mi SW 6.9 mph - N/A   Clear
3:35 AM 57.2 °F 57.2 °F 100% 30.16 in 7.0 mi SW 8.1 mph - N/A   Scattered Clouds
3:55 AM 57.2 °F 57.2 °F 100% 30.15 in 7.0 mi SW 8.1 mph - N/A   Clear
4:15 AM 57.0 °F 57.0 °F 100% 30.15 in 7.0 mi SSW 6.9 mph - N/A   Clear
4:55 AM 57.2 °F 57.2 °F 100% 30.14 in 7.0 mi SSW 8.1 mph - N/A   Clear
5:15 AM 56.3 °F 56.3 °F 100% 30.14 in 7.0 mi SSW 5.8 mph - N/A   Clear
5:35 AM 56.3 °F 56.3 °F 100% 30.14 in 7.0 mi SSW 5.8 mph - N/A   Clear
5:55 AM 56.1 °F 56.1 °F 100% 30.14 in 5.0 mi SSW 5.8 mph - N/A   Clear
6:15 AM 55.2 °F 55.2 °F 100% 30.15 in 5.0 mi SW 6.9 mph - N/A   Clear
6:35 AM 55.4 °F 55.4 °F 100% 30.16 in 5.0 mi SW 5.8 mph - N/A   Clear
6:55 AM 55.8 °F 55.8 °F 100% 30.16 in 7.0 mi SW 5.8 mph - N/A   Mostly Cloudy
7:15 AM 55.6 °F 55.6 °F 100% 30.16 in 7.0 mi SW 5.8 mph - N/A   Scattered Clouds
7:35 AM 56.5 °F 56.5 °F 100% 30.16 in 7.0 mi SW 6.9 mph - N/A   Clear
7:55 AM 57.2 °F 57.2 °F 100% 30.17 in 7.0 mi WSW 5.8 mph - N/A   Clear
9:55 AM 63.7 °F 58.1 °F 82% 30.18 in 10.0 mi WSW 10.4 mph 16.1 mph N/A   Scattered Clouds
10:15 AM 66.0 °F 58.5 °F 77% 30.18 in 10.0 mi SW 12.7 mph - N/A   Scattered Clouds
10:35 AM 67.1 °F 57.9 °F 72% 30.17 in 10.0 mi WSW 13.8 mph 18.4 mph N/A   Clear
10:55 AM 68.2 °F 57.7 °F 69% 30.17 in 10.0 mi WSW 12.7 mph 17.3 mph N/A   Clear
11:15 AM 68.0 °F 57.4 °F 69% 30.16 in 10.0 mi WSW 10.4 mph - N/A   Mostly Cloudy
11:35 AM 69.6 °F 57.0 °F 64% 30.15 in 10.0 mi WSW 12.7 mph 17.3 mph N/A   Mostly Cloudy
11:55 AM 68.2 °F 56.8 °F 67% 30.14 in 10.0 mi WSW 10.4 mph - N/A   Overcast
12:15 PM 69.3 °F 57.0 °F 65% 30.14 in 10.0 mi West 10.4 mph - N/A   Overcast
12:55 PM 68.9 °F 55.8 °F 63% 30.13 in 10.0 mi West 9.2 mph - N/A   Overcast
1:15 PM 68.2 °F 56.1 °F 65% 30.13 in 10.0 mi WNW 9.2 mph - N/A   Overcast
1:55 PM 67.5 °F 56.3 °F 67% 30.12 in 10.0 mi NW 5.8 mph - N/A   Overcast
2:15 PM 67.3 °F 55.9 °F 67% 30.11 in 10.0 mi NNW 8.1 mph - N/A   Overcast
2:35 PM 67.3 °F 55.8 °F 66% 30.11 in 10.0 mi North 8.1 mph - N/A   Overcast
2:55 PM 67.1 °F 56.1 °F 68% 30.11 in 10.0 mi NNW 5.8 mph - N/A   Overcast
3:15 PM 66.4 °F 56.1 °F 69% 30.11 in 10.0 mi North 6.9 mph - N/A   Overcast
3:35 PM 65.7 °F 55.9 °F 71% 30.11 in 10.0 mi North 8.1 mph - N/A   Overcast
3:55 PM 64.8 °F 55.8 °F 73% 30.12 in 10.0 mi North 6.9 mph - N/A   Overcast
4:15 PM 64.4 °F 55.8 °F 73% 30.13 in 10.0 mi North 8.1 mph - N/A   Overcast
4:35 PM 63.0 °F 55.9 °F 78% 30.13 in 10.0 mi North 6.9 mph - N/A   Overcast
4:55 PM 62.2 °F 55.9 °F 80% 30.14 in 10.0 mi North 9.2 mph - N/A   Overcast
5:15 PM 60.4 °F 57.2 °F 89% 30.15 in 10.0 mi North 6.9 mph - N/A   Overcast
5:35 PM 59.5 °F 56.5 °F 90% 30.16 in 10.0 mi NNE 12.7 mph 20.7 mph N/A   Light Drizzle
5:55 PM 56.8 °F 53.4 °F 88% 30.17 in 10.0 mi NNE 11.5 mph 26.5 mph N/A   Overcast
6:15 PM 56.7 °F 50.9 °F 81% 30.18 in 10.0 mi NNE 10.4 mph - N/A   Overcast
6:35 PM 55.9 °F 50.5 °F 82% 30.18 in 10.0 mi NNE 5.8 mph - N/A   Drizzle
7:15 PM 55.4 °F 50.5 °F 84% 30.18 in 10.0 mi Calm Calm - N/A   Light Drizzle
7:35 PM 54.9 °F 50.9 °F 86% 30.19 in 10.0 mi Calm Calm - N/A   Overcast
7:55 PM 54.7 °F 50.7 °F 86% 30.20 in 10.0 mi NNW 6.9 mph - N/A   Overcast
8:15 PM 54.7 °F 49.3 °F 82% 30.19 in 10.0 mi North 5.8 mph - N/A   Overcast
8:35 PM 54.1 °F 49.1 °F 83% 30.19 in 10.0 mi NE 4.6 mph - N/A   Drizzle
8:55 PM 53.6 °F 48.7 °F 84% 30.20 in 10.0 mi NNE 4.6 mph - N/A   Overcast
9:15 PM 53.1 °F 48.6 °F 85% 30.20 in 10.0 mi NE 3.5 mph - N/A   Overcast
9:55 PM 53.2 °F 46.6 °F 78% 30.21 in 10.0 mi Calm Calm - N/A   Overcast
10:15 PM 52.7 °F 46.4 °F 79% 30.20 in 10.0 mi Calm Calm - N/A   Overcast
10:35 PM 52.3 °F 46.0 °F 79% 30.21 in 10.0 mi Calm Calm - N/A   Mostly Cloudy
10:55 PM 51.1 °F 45.7 °F 82% 30.21 in 10.0 mi Calm Calm - N/A   Scattered Clouds
11:15 PM 49.3 °F 44.8 °F 84% 30.21 in 10.0 mi Calm Calm - N/A   Clear
11:35 PM 47.7 °F 44.6 °F 89% 30.21 in 10.0 mi Calm Calm - N/A   Clear
11:55 PM 47.3 °F 45.1 °F 92% 30.21 in 10.0 mi Calm Calm - N/A   Clear